Newark, NJ

4:35 PM EDT on May 28, 2017 (GMT -0400)
Newark International

Weather History for KEWR - June, 2012

Change the Weather History Date:

Wednesday, June 20, 2012

  Actual Average Record
Temperature  
Mean Temperature 84 °F 74 °F  
Max Temperature 98 °F 83 °F 98 °F (2012)
Min Temperature 70 °F 65 °F 52 °F (1956)
Degree Days  
Heating Degree Days 0 0  
Month to date heating degree days 14 15  
Since 1 June heating degree days 14 15  
Since 1 July heating degree days 3707 4870  
Cooling Degree Days 19 9  
Month to date cooling degree days 101 135  
Year to date cooling degree days 234 211  
Since 1 June cooling degree days 101 135  
Growing Degree Days 34 (Base 50)    
Moisture  
Dew Point 68 °F    
Average Humidity 64    
Maximum Humidity 90    
Minimum Humidity 38    
Precipitation  
Precipitation 0.00 in 0.12 in 0.65 in (1955)
Month to date precipitation 3.38 2.77  
Year to date precipitation 16.42 21.66  
Snow  
Snow 0.00 in 0.00 in 0.00 in (2002)
Month to date snowfall 0.0 0.0  
Since 1 July snowfall 8.8 28.5  
Snow Depth 0.00 in    
Sea Level Pressure  
Sea Level Pressure 30.01 in    
Wind  
Wind Speed 8 mph (WSW)    
Max Wind Speed 16 mph    
Max Gust Speed 28 mph    
Visibility 9 miles    
Events      
T = Trace of Precipitation, MM = Missing Value Source: NWS Daily Summary

Daily Weather History Graph

Daily Weather History Graph

Search for Another Location

Airport or City:

Trip Planner

Search our weather history database for the weather conditions in past years. The results will help you decide how hot, cold, wet, or windy it might be!

Date:

Astronomy

Jun. 20, 2012 Rise Set
Actual Time 5:25 AM EDT 8:31 PM EDT
Civil Twilight 4:52 AM EDT 9:04 PM EDT
Nautical Twilight 4:09 AM EDT 9:47 PM EDT
Astronomical Twilight 3:19 AM EDT 10:37 PM EDT
Moon 6:23 AM EDT (6/20) 9:14 PM EDT (6/20)
Length of Visible Light 16h 12m
Length of Day
15h 05m
New Moon, 1% of the Moon is Illuminated
Jun 20
New Moon
Jun 26
First Quarter
Jul 3
Full
Jul 10
Last Quarter
Jul 19
New

Hourly Weather History & Observations

Time (EDT) Temp. Heat Index Dew Point Humidity Pressure Visibility Wind Dir Wind Speed Gust Speed Precip Events Conditions
12:51 AM 71.1 °F - 66.0 °F 84% 30.07 in 10.0 mi SSW 6.9 mph - N/A   Scattered Clouds
1:51 AM 72.0 °F - 66.0 °F 81% 30.08 in 10.0 mi SW 5.8 mph - N/A   Partly Cloudy
2:51 AM 71.1 °F - 66.0 °F 84% 30.07 in 10.0 mi SW 6.9 mph - N/A   Mostly Cloudy
3:51 AM 71.1 °F - 66.0 °F 84% 30.06 in 9.0 mi SW 5.8 mph - N/A   Scattered Clouds
4:51 AM 71.1 °F - 66.9 °F 87% 30.05 in 9.0 mi SW 5.8 mph - N/A   Scattered Clouds
5:51 AM 71.1 °F - 66.9 °F 87% 30.06 in 8.0 mi SW 6.9 mph - N/A   Partly Cloudy
6:51 AM 72.0 °F - 68.0 °F 87% 30.07 in 6.0 mi SW 3.5 mph - N/A   Partly Cloudy
7:51 AM 75.9 °F - 69.1 °F 79% 30.07 in 7.0 mi SW 3.5 mph - N/A   Partly Cloudy
8:51 AM 82.0 °F 85.9 °F 70.0 °F 67% 30.06 in 8.0 mi West 4.6 mph - N/A   Clear
9:51 AM 88.0 °F 92.9 °F 70.0 °F 55% 30.05 in 9.0 mi West 6.9 mph - N/A   Scattered Clouds
10:51 AM 93.0 °F 97.9 °F 69.1 °F 45% 30.05 in 10.0 mi NW 9.2 mph - N/A   Scattered Clouds
11:51 AM 93.9 °F 98.6 °F 68.0 °F 43% 30.04 in 10.0 mi NNW 3.5 mph - N/A   Scattered Clouds
12:51 PM 96.1 °F 101.0 °F 68.0 °F 40% 30.02 in 10.0 mi WNW 8.1 mph - N/A   Scattered Clouds
1:51 PM 96.1 °F 99.9 °F 66.9 °F 38% 30.00 in 10.0 mi WNW 12.7 mph 16.1 mph N/A   Scattered Clouds
2:51 PM 97.0 °F 102.2 °F 68.0 °F 39% 29.99 in 10.0 mi Variable 6.9 mph - N/A   Scattered Clouds
3:51 PM 97.0 °F 103.5 °F 70.0 °F 41% 29.97 in 10.0 mi West 12.7 mph 19.6 mph N/A   Mostly Cloudy
4:51 PM 97.0 °F 103.5 °F 70.0 °F 41% 29.95 in 10.0 mi WSW 12.7 mph 20.7 mph N/A   Mostly Cloudy
6:51 PM 96.1 °F 101.6 °F 69.1 °F 41% 29.94 in 10.0 mi West 12.7 mph - N/A   Mostly Cloudy
7:51 PM 93.9 °F 98.6 °F 68.0 °F 43% 29.94 in 10.0 mi SW 10.4 mph - N/A   Mostly Cloudy
8:51 PM 91.9 °F 95.9 °F 68.0 °F 45% 29.93 in 10.0 mi WSW 10.4 mph - N/A   Scattered Clouds
9:51 PM 90.0 °F 93.6 °F 68.0 °F 48% 29.94 in 10.0 mi WSW 8.1 mph - N/A   Partly Cloudy
10:51 PM 88.0 °F 91.4 °F 68.0 °F 51% 29.94 in 10.0 mi WSW 8.1 mph - N/A   Partly Cloudy
11:51 PM 86.0 °F 90.1 °F 69.1 °F 57% 29.94 in 10.0 mi West 6.9 mph - N/A   Partly Cloudy